Location: Bonneuil
(46.1010°N, 2.9693°E)
Time: 16:13:53
(UTC+00:00)

SL-24 R/B - RUBIN 2 - Pass Details

Date: 09 April 2020
Orbit: 569 x 1026 km, 64.6° (Epoch: 04 June)

Event Time Altitude Azimuth Distance (km) Brightness Sun altitude
Rises 19:21:02 0° 212° (SSW) 3,234 7.4 -9.6°
Reaches altitude 10° 19:23:18 10° 211° (SSW) 2,377 6.7 -10.0°
Maximum altitude 19:28:51 83° 125° (SE) 894 4.3 -10.9°
Drops below altitude 10° 19:35:11 10° 38° (NE) 2,692 6.7 -11.9°
Sets 19:37:53 0° 38° (NE) 3,692 7.4 -12.3°
